"Sample Date","Sample Time","Sensor Name","Sample Value","Units","Flow Rate","Sample Interval","Sample Volume","Laser Status","Number Channels","Micron Size 0","Counts/Channel 0","Micron Size 1","Counts/Channel 1","Micron Size 2","Counts/Channel 2","Micron Size 3","Counts/Channel 3","Micron Size 4","Counts/Channel 4","Micron Size 5","Counts/Channel 5","Micron Size 6","Counts/Channel 6","Micron Size 7","Counts/Channel 7","Micron Size 8","Counts/Channel 8","Micron Size 9","Counts/Channel 9","Micron Size 10","Counts/Channel 10","Micron Size 11","Counts/Channel 11","Micron Size 12","Counts/Channel 12","Micron Size 13","Counts/Channel 13","Micron Size 14","Counts/Channel 14","Micron Size 15","Counts/Channel 15","Micron Size 16","Counts/Channel 16","Micron Size 17","Counts/Channel 17","Micron Size 18","Counts/Channel 18","Micron Size 19","Counts/Channel 19","Micron Size 20","Counts/Channel 20","Micron Size 21","Counts/Channel 21","Micron Size 22","Counts/Channel 22","Micron Size 23","Counts/Channel 23","Micron Size 24","Counts/Channel 24","Micron Size 25","Counts/Channel 25","Micron Size 26","Counts/Channel 26","Micron Size 27","Counts/Channel 27","Micron Size 28","Counts/Channel 28","Micron Size 29","Counts/Channel 29","Micron Size 30","Counts/Channel 30","Micron Size 31","Counts/Channel 31"
"07/06/06","06:00:03","AMMA06",47212.000,"cc",28310.328,6.00,2831.033,1,6,0.100,24302.000,0.200,19538.000,0.300,2557.000,0.500,514.000,1.000,301.000,5.000,0
"07/06/06","06:00:09","AMMA06",47676.000,"cc",28316.182,6.00,2831.618,1,6,0.100,24325.000,0.200,19651.000,0.300,2749.000,0.500,611.000,1.000,340.000,5.000,0
"07/06/06","06:00:15","AMMA06",48591.000,"cc",28333.004,6.00,2833.301,1,6,0.100,24747.000,0.200,19722.000,0.300,2976.000,0.500,750.000,1.000,396.000,5.000,0
"07/06/06","06:00:21","AMMA06",49367.000,"cc",28302.065,6.00,2830.207,1,6,0.100,25197.000,0.200,19966.000,0.300,2998.000,0.500,772.000,1.000,434.000,5.000,0
"07/06/06","06:00:27","AMMA06",47554.000,"cc",28279.930,6.00,2827.993,1,6,0.100,24452.000,0.200,19545.000,0.300,2591.000,0.500,600.000,1.000,366.000,5.000,0
"07/06/06","06:00:33","AMMA06",47771.000,"cc",28345.850,6.00,2834.585,1,6,0.100,24534.000,0.200,19669.000,0.300,2697.000,0.500,534.000,1.000,337.000,5.000,0
"07/06/06","06:00:39","AMMA06",47724.000,"cc",28394.215,6.00,2839.422,1,6,0.100,24382.000,0.200,19742.000,0.300,2754.000,0.500,508.000,1.000,338.000,5.000,0
"07/06/06","06:00:45","AMMA06",47191.000,"cc",28341.117,6.00,2834.112,1,6,0.100,24094.000,0.200,19441.000,0.300,2729.000,0.500,596.000,1.000,331.000,5.000,0
"07/06/06","06:00:51","AMMA06",47342.000,"cc",28290.313,6.00,2829.032,1,6,0.100,24253.000,0.200,19506.000,0.300,2632.000,0.500,605.000,1.000,346.000,5.000,0
"07/06/06","06:00:57","AMMA06",47588.000,"cc",28297.236,6.00,2829.724,1,6,0.100,24173.000,0.200,19754.000,0.300,2705.000,0.500,599.000,1.000,357.000,5.000,0
"07/06/06","06:01:03","AMMA06",47413.000,"cc",28281.578,6.00,2828.158,1,6,0.100,23967.000,0.200,19944.000,0.300,2630.000,0.500,542.000,1.000,330.000,5.000,0
"07/06/06","06:01:09","AMMA06",49240.000,"cc",28280.553,6.00,2828.055,1,6,0.100,24792.000,0.200,20296.000,0.300,2963.000,0.500,769.000,1.000,420.000,5.000,0
"07/06/06","06:01:15","AMMA06",48505.000,"cc",28359.068,6.00,2835.907,1,6,0.100,24350.000,0.200,20117.000,0.300,2916.000,0.500,711.000,1.000,411.000,5.000,0
"07/06/06","06:01:21","AMMA06",47943.000,"cc",28320.785,6.00,2832.079,1,6,0.100,24208.000,0.200,19977.000,0.300,2764.000,0.500,645.000,1.000,349.000,5.000,0
"07/06/06","06:01:27","AMMA06",47903.000,"cc",28311.787,6.00,2831.179,1,6,0.100,24372.000,0.200,19927.000,0.300,2653.000,0.500,618.000,1.000,333.000,5.000,0
"07/06/06","06:01:33","AMMA06",47960.000,"cc",28324.443,6.00,2832.445,1,6,0.100,24243.000,0.200,20011.000,0.300,2717.000,0.500,641.000,1.000,348.000,5.000,0
"07/06/06","06:01:39","AMMA06",47846.000,"cc",28293.297,6.00,2829.330,1,6,0.100,24271.000,0.200,19992.000,0.300,2619.000,0.500,605.000,1.000,359.000,5.000,0
"07/06/06","06:01:45","AMMA06",48508.000,"cc",28317.391,6.00,2831.739,1,6,0.100,24765.000,0.200,20090.000,0.300,2724.000,0.500,563.000,1.000,366.000,5.000,0
"07/06/06","06:01:51","AMMA06",48257.000,"cc",28303.285,6.00,2830.329,1,6,0.100,24298.000,0.200,20083.000,0.300,2758.000,0.500,680.000,1.000,438.000,5.000,0
"07/06/06","06:01:57","AMMA06",47933.000,"cc",28333.184,6.00,2833.319,1,6,0.100,24109.000,0.200,20196.000,0.300,2687.000,0.500,601.000,1.000,340.000,5.000,0
"07/06/06","06:02:03","AMMA06",48026.000,"cc",28325.723,6.00,2832.573,1,6,0.100,24297.000,0.200,19951.000,0.300,2858.000,0.500,560.000,1.000,360.000,5.000,0
"07/06/06","06:02:09","AMMA06",47830.000,"cc",28326.869,6.00,2832.687,1,6,0.100,24134.000,0.200,20078.000,0.300,2685.000,0.500,575.000,1.000,358.000,5.000,0
"07/06/06","06:02:15","AMMA06",48048.000,"cc",28264.356,6.00,2826.436,1,6,0.100,24114.000,0.200,20133.000,0.300,2862.000,0.500,606.000,1.000,333.000,5.000,0
"07/06/06","06:02:21","AMMA06",47604.000,"cc",28287.432,6.00,2828.743,1,6,0.100,24038.000,0.200,19984.000,0.300,2674.000,0.500,572.000,1.000,336.000,5.000,0
"07/06/06","06:02:27","AMMA06",48184.000,"cc",28350.838,6.00,2835.084,1,6,0.100,24189.000,0.200,20239.000,0.300,2808.000,0.500,589.000,1.000,359.000,5.000,0
"07/06/06","06:02:33","AMMA06",47742.000,"cc",28311.156,6.00,2831.116,1,6,0.100,23959.000,0.200,20116.000,0.300,2766.000,0.500,563.000,1.000,338.000,5.000,0
"07/06/06","06:02:39","AMMA06",47574.000,"cc",28370.320,6.00,2837.032,1,6,0.100,23914.000,0.200,20028.000,0.300,2701.000,0.500,555.000,1.000,376.000,5.000,0
"07/06/06","06:02:45","AMMA06",47463.000,"cc",28307.293,6.00,2830.730,1,6,0.100,23970.000,0.200,20032.000,0.300,2610.000,0.500,539.000,1.000,312.000,5.000,0
"07/06/06","06:02:51","AMMA06",47300.000,"cc",28326.121,6.00,2832.612,1,6,0.100,23933.000,0.200,19784.000,0.300,2720.000,0.500,540.000,1.000,323.000,5.000,0
"07/06/06","06:02:57","AMMA06",48082.000,"cc",28286.031,6.00,2828.603,1,6,0.100,24096.000,0.200,20014.000,0.300,2901.000,0.500,684.000,1.000,387.000,5.000,0
"07/06/06","06:03:03","AMMA06",48258.000,"cc",28361.373,6.00,2836.138,1,6,0.100,24168.000,0.200,20204.000,0.300,2878.000,0.500,641.000,1.000,367.000,5.000,0
"07/06/06","06:03:09","AMMA06",47542.000,"cc",28311.940,6.00,2831.194,1,6,0.100,23949.000,0.200,20007.000,0.300,2722.000,0.500,556.000,1.000,308.000,5.000,0
"07/06/06","06:03:15","AMMA06",47933.000,"cc",28353.912,6.00,2835.391,1,6,0.100,24080.000,0.200,20050.000,0.300,2781.000,0.500,647.000,1.000,375.000,5.000,0
"07/06/06","06:03:21","AMMA06",47420.000,"cc",28288.016,6.00,2828.802,1,6,0.100,23773.000,0.200,20111.000,0.300,2676.000,0.500,526.000,1.000,334.000,5.000,0
"07/06/06","06:03:27","AMMA06",48085.000,"cc",28298.326,6.00,2829.833,1,6,0.100,24113.000,0.200,20044.000,0.300,2857.000,0.500,699.000,1.000,372.000,5.000,0
"07/06/06","06:03:33","AMMA06",47852.000,"cc",28328.940,6.00,2832.894,1,6,0.100,23845.000,0.200,20124.000,0.300,2837.000,0.500,667.000,1.000,379.000,5.000,0
"07/06/06","06:03:39","AMMA06",47922.000,"cc",28302.162,6.00,2830.216,1,6,0.100,24034.000,0.200,19960.000,0.300,2867.000,0.500,676.000,1.000,385.000,5.000,0
"07/06/06","06:03:45","AMMA06",48068.000,"cc",28298.272,6.00,2829.827,1,6,0.100,24244.000,0.200,19773.000,0.300,2932.000,0.500,720.000,1.000,399.000,5.000,0
"07/06/06","06:03:51","AMMA06",50242.000,"cc",28335.365,6.00,2833.537,1,6,0.100,25033.000,0.200,20546.000,0.300,3310.000,0.500,915.000,1.000,438.000,5.000,0
"07/06/06","06:03:57","AMMA06",48430.000,"cc",28294.988,6.00,2829.499,1,6,0.100,24552.000,0.200,19856.000,0.300,2970.000,0.500,689.000,1.000,363.000,5.000,0
"07/06/06","06:04:03","AMMA06",47141.000,"cc",28355.367,6.00,2835.537,1,6,0.100,23718.000,0.200,19817.000,0.300,2691.000,0.500,570.000,1.000,345.000,5.000,0
"07/06/06","06:04:09","AMMA06",46651.000,"cc",28319.752,6.00,2831.975,1,6,0.100,23543.000,0.200,19634.000,0.300,2608.000,0.500,534.000,1.000,332.000,5.000,0
"07/06/06","06:04:15","AMMA06",48275.000,"cc",28340.580,6.00,2834.058,1,6,0.100,24299.000,0.200,19984.000,0.300,2940.000,0.500,697.000,1.000,355.000,5.000,0
"07/06/06","06:04:21","AMMA06",47128.000,"cc",28336.020,6.00,2833.602,1,6,0.100,23736.000,0.200,19842.000,0.300,2664.000,0.500,564.000,1.000,322.000,5.000,0
"07/06/06","06:04:27","AMMA06",46919.000,"cc",28302.119,6.00,2830.212,1,6,0.100,23707.000,0.200,19583.000,0.300,2663.000,0.500,629.000,1.000,337.000,5.000,0
"07/06/06","06:04:33","AMMA06",47755.000,"cc",28333.799,6.00,2833.380,1,6,0.100,24186.000,0.200,19628.000,0.300,2950.000,0.500,639.000,1.000,352.000,5.000,0
"07/06/06","06:04:39","AMMA06",47666.000,"cc",28304.023,6.00,2830.403,1,6,0.100,23929.000,0.200,20016.000,0.300,2801.000,0.500,576.000,1.000,344.000,5.000,0
"07/06/06","06:04:45","AMMA06",47426.000,"cc",28322.322,6.00,2832.232,1,6,0.100,24174.000,0.200,19688.000,0.300,2654.000,0.500,573.000,1.000,337.000,5.000,0
"07/06/06","06:04:51","AMMA06",47143.000,"cc",28313.705,6.00,2831.371,1,6,0.100,24093.000,0.200,19466.000,0.300,2681.000,0.500,554.000,1.000,349.000,5.000,0
"07/06/06","06:04:57","AMMA06",47000.000,"cc",28318.973,6.00,2831.898,1,6,0.100,24219.000,0.200,19329.000,0.300,2535.000,0.500,559.000,1.000,358.000,5.000,0
"07/06/06","06:05:03","AMMA06",47668.000,"cc",28287.584,6.00,2828.759,1,6,0.100,24330.000,0.200,19644.000,0.300,2747.000,0.500,602.000,1.000,345.000,5.000,0
"07/06/06","06:05:09","AMMA06",47505.000,"cc",28370.379,6.00,2837.038,1,6,0.100,24321.000,0.200,19678.000,0.300,2570.000,0.500,573.000,1.000,363.000,5.000,0
"07/06/06","06:05:15","AMMA06",47535.000,"cc",28284.014,6.00,2828.402,1,6,0.100,24474.000,0.200,19379.000,0.300,2700.000,0.500,616.000,1.000,366.000,5.000,0
"07/06/06","06:05:21","AMMA06",46994.000,"cc",28352.523,6.00,2835.252,1,6,0.100,24229.000,0.200,19167.000,0.300,2649.000,0.500,574.000,1.000,375.000,5.000,0
"07/06/06","06:05:27","AMMA06",46605.000,"cc",28338.893,6.00,2833.889,1,6,0.100,23888.000,0.200,19235.000,0.300,2595.000,0.500,545.000,1.000,342.000,5.000,0
"07/06/06","06:05:33","AMMA06",48996.000,"cc",28260.799,6.00,2826.080,1,6,0.100,25026.000,0.200,19593.000,0.300,3088.000,0.500,843.000,1.000,446.000,5.000,0
"07/06/06","06:05:39","AMMA06",47066.000,"cc",28311.006,6.00,2831.101,1,6,0.100,24162.000,0.200,19149.000,0.300,2741.000,0.500,647.000,1.000,367.000,5.000,0
"07/06/06","06:05:45","AMMA06",47080.000,"cc",28306.578,6.00,2830.658,1,6,0.100,24217.000,0.200,19251.000,0.300,2660.000,0.500,596.000,1.000,356.000,5.000,0
"07/06/06","06:05:51","AMMA06",47037.000,"cc",28304.561,6.00,2830.456,1,6,0.100,24158.000,0.200,19433.000,0.300,2580.000,0.500,537.000,1.000,329.000,5.000,0
"07/06/06","06:05:57","AMMA06",46499.000,"cc",28338.188,6.00,2833.819,1,6,0.100,23938.000,0.200,19146.000,0.300,2548.000,0.500,554.000,1.000,313.000,5.000,0
"07/06/06","06:06:03","AMMA06",46407.000,"cc",28274.588,6.00,2827.459,1,6,0.100,23981.000,0.200,18879.000,0.300,2640.000,0.500,584.000,1.000,323.000,5.000,0
"07/06/06","06:06:09","AMMA06",46895.000,"cc",28317.393,6.00,2831.740,1,6,0.100,24406.000,0.200,19026.000,0.300,2611.000,0.500,537.000,1.000,315.000,5.000,0
"07/06/06","06:06:15","AMMA06",46734.000,"cc",28332.977,6.00,2833.298,1,6,0.100,24245.000,0.200,18922.000,0.300,2605.000,0.500,597.000,1.000,365.000,5.000,0
"07/06/06","06:06:21","AMMA06",46601.000,"cc",28300.059,6.00,2830.006,1,6,0.100,24223.000,0.200,18800.000,0.300,2630.000,0.500,606.000,1.000,342.000,5.000,0
"07/06/06","06:06:27","AMMA06",46709.000,"cc",28298.805,6.00,2829.881,1,6,0.100,24319.000,0.200,18981.000,0.300,2531.000,0.500,552.000,1.000,326.000,5.000,0
"07/06/06","06:06:33","AMMA06",47661.000,"cc",28313.223,6.00,2831.323,1,6,0.100,24624.000,0.200,19083.000,0.300,2875.000,0.500,711.000,1.000,368.000,5.000,0
"07/06/06","06:06:39","AMMA06",47865.000,"cc",28330.732,6.00,2833.074,1,6,0.100,24848.000,0.200,19216.000,0.300,2762.000,0.500,683.000,1.000,356.000,5.000,0
"07/06/06","06:06:45","AMMA06",47302.000,"cc",28305.457,6.00,2830.546,1,6,0.100,24382.000,0.200,19301.000,0.300,2622.000,0.500,618.000,1.000,379.000,5.000,0
"07/06/06","06:06:51","AMMA06",46923.000,"cc",28301.656,6.00,2830.166,1,6,0.100,24434.000,0.200,18916.000,0.300,2608.000,0.500,605.000,1.000,360.000,5.000,0
"07/06/06","06:06:57","AMMA06",48655.000,"cc",28303.590,6.00,2830.359,1,6,0.100,25171.000,0.200,19271.000,0.300,2894.000,0.500,894.000,1.000,425.000,5.000,0
"07/06/06","06:07:03","AMMA06",50297.000,"cc",28323.520,6.00,2832.352,1,6,0.100,25894.000,0.200,19650.000,0.300,3256.000,0.500,1020.000,1.000,477.000,5.000,0
"07/06/06","06:07:09","AMMA06",49356.000,"cc",28369.078,6.00,2836.908,1,6,0.100,25624.000,0.200,19435.000,0.300,2960.000,0.500,905.000,1.000,432.000,5.000,0
"07/06/06","06:07:15","AMMA06",47050.000,"cc",28267.178,6.00,2826.718,1,6,0.100,24550.000,0.200,18868.000,0.300,2591.000,0.500,683.000,1.000,358.000,5.000,0
"07/06/06","06:07:21","AMMA06",47553.000,"cc",28332.100,6.00,2833.210,1,6,0.100,25028.000,0.200,18951.000,0.300,2612.000,0.500,623.000,1.000,339.000,5.000,0
"07/06/06","06:07:27","AMMA06",46642.000,"cc",28317.686,6.00,2831.769,1,6,0.100,24394.000,0.200,18759.000,0.300,2535.000,0.500,619.000,1.000,335.000,5.000,0
"07/06/06","06:07:33","AMMA06",53361.000,"cc",28358.686,6.00,2835.869,1,6,0.100,27155.000,0.200,20224.000,0.300,3962.000,0.500,1409.000,1.000,611.000,5.000,0
"07/06/06","06:07:39","AMMA06",47952.000,"cc",28320.023,6.00,2832.002,1,6,0.100,24882.000,0.200,19050.000,0.300,2908.000,0.500,752.000,1.000,360.000,5.000,0
"07/06/06","06:07:45","AMMA06",46610.000,"cc",28329.848,6.00,2832.985,1,6,0.100,24389.000,0.200,18622.000,0.300,2619.000,0.500,645.000,1.000,335.000,5.000,0
"07/06/06","06:07:51","AMMA06",47926.000,"cc",28273.731,6.00,2827.373,1,6,0.100,24816.000,0.200,19082.000,0.300,2851.000,0.500,799.000,1.000,378.000,5.000,0
"07/06/06","06:07:57","AMMA06",48801.000,"cc",28306.705,6.00,2830.671,1,6,0.100,25210.000,0.200,19381.000,0.300,2896.000,0.500,874.000,1.000,440.000,5.000,0
"07/06/06","06:08:03","AMMA06",46784.000,"cc",28297.734,6.00,2829.774,1,6,0.100,24212.000,0.200,19062.000,0.300,2544.000,0.500,608.000,1.000,358.000,5.000,0
"07/06/06","06:08:09","AMMA06",47187.000,"cc",28371.246,6.00,2837.125,1,6,0.100,24722.000,0.200,18773.000,0.300,2639.000,0.500,687.000,1.000,366.000,5.000,0
"07/06/06","06:08:15","AMMA06",45869.000,"cc",28293.969,6.00,2829.397,1,6,0.100,23901.000,0.200,18703.000,0.300,2427.000,0.500,534.000,1.000,304.000,5.000,0
"07/06/06","06:08:21","AMMA06",50591.000,"cc",28374.398,6.00,2837.440,1,6,0.100,25698.000,0.200,19796.000,0.300,3489.000,0.500,1118.000,1.000,490.000,5.000,0
"07/06/06","06:08:27","AMMA06",49440.000,"cc",28307.553,6.00,2830.755,1,6,0.100,25485.000,0.200,19379.000,0.300,3150.000,0.500,944.000,1.000,482.000,5.000,0
"07/06/06","06:08:33","AMMA06",47968.000,"cc",28292.293,6.00,2829.230,1,6,0.100,24909.000,0.200,19181.000,0.300,2767.000,0.500,715.000,1.000,396.000,5.000,0
"07/06/06","06:08:39","AMMA06",50494.000,"cc",28319.781,6.00,2831.978,1,6,0.100,25803.000,0.200,19942.000,0.300,3211.000,0.500,1025.000,1.000,513.000,5.000,0
"07/06/06","06:08:45","AMMA06",49218.000,"cc",28279.508,6.00,2827.951,1,6,0.100,25188.000,0.200,19523.000,0.300,3075.000,0.500,964.000,1.000,468.000,5.000,0
"07/06/06","06:08:51","AMMA06",47717.000,"cc",28372.137,6.00,2837.214,1,6,0.100,24672.000,0.200,19019.000,0.300,2881.000,0.500,757.000,1.000,388.000,5.000,0
"07/06/06","06:08:57","AMMA06",47231.000,"cc",28313.365,6.00,2831.337,1,6,0.100,24222.000,0.200,19236.000,0.300,2717.000,0.500,656.000,1.000,399.000,5.000,1.000
"07/06/06","06:09:03","AMMA06",46748.000,"cc",28320.123,6.00,2832.013,1,6,0.100,24163.000,0.200,18912.000,0.300,2620.000,0.500,668.000,1.000,385.000,5.000,0
"07/06/06","06:09:09","AMMA06",45697.000,"cc",28291.688,6.00,2829.169,1,6,0.100,23524.000,0.200,18617.000,0.300,2588.000,0.500,608.000,1.000,360.000,5.000,0
"07/06/06","06:09:15","AMMA06",45685.000,"cc",28300.213,6.00,2830.022,1,6,0.100,23426.000,0.200,18739.000,0.300,2541.000,0.500,602.000,1.000,377.000,5.000,0
"07/06/06","06:09:21","AMMA06",45350.000,"cc",28340.928,6.00,2834.093,1,6,0.100,23428.000,0.200,18493.000,0.300,2554.000,0.500,537.000,1.000,338.000,5.000,0
"07/06/06","06:09:27","AMMA06",45653.000,"cc",28347.957,6.00,2834.796,1,6,0.100,23774.000,0.200,18664.000,0.300,2451.000,0.500,494.000,1.000,270.000,5.000,0
"07/06/06","06:09:33","AMMA06",46707.000,"cc",28299.184,6.00,2829.919,1,6,0.100,23887.000,0.200,18910.000,0.300,2823.000,0.500,713.000,1.000,374.000,5.000,0
"07/06/06","06:09:39","AMMA06",47651.000,"cc",28320.385,6.00,2832.039,1,6,0.100,24478.000,0.200,19120.000,0.300,2898.000,0.500,766.000,1.000,389.000,5.000,0
"07/06/06","06:09:45","AMMA06",47988.000,"cc",28327.664,6.00,2832.767,1,6,0.100,24503.000,0.200,19047.000,0.300,3135.000,0.500,817.000,1.000,486.000,5.000,0
"07/06/06","06:09:51","AMMA06",46566.000,"cc",28303.221,6.00,2830.322,1,6,0.100,24015.000,0.200,18700.000,0.300,2738.000,0.500,721.000,1.000,392.000,5.000,0
"07/06/06","06:09:57","AMMA06",46644.000,"cc",28281.815,6.00,2828.182,1,6,0.100,24158.000,0.200,18693.000,0.300,2747.000,0.500,693.000,1.000,353.000,5.000,0
"07/06/06","06:10:03","AMMA06",46933.000,"cc",28340.221,6.00,2834.022,1,6,0.100,24255.000,0.200,18790.000,0.300,2829.000,0.500,692.000,1.000,367.000,5.000,0
"07/06/06","06:10:09","AMMA06",46601.000,"cc",28330.731,6.00,2833.073,1,6,0.100,23912.000,0.200,18788.000,0.300,2723.000,0.500,774.000,1.000,403.000,5.000,1.000
"07/06/06","06:10:15","AMMA06",45671.000,"cc",28308.379,6.00,2830.838,1,6,0.100,23541.000,0.200,18538.000,0.300,2610.000,0.500,606.000,1.000,376.000,5.000,0
"07/06/06","06:10:21","AMMA06",46196.000,"cc",28272.236,6.00,2827.224,1,6,0.100,23820.000,0.200,18541.000,0.300,2731.000,0.500,708.000,1.000,396.000,5.000,0
"07/06/06","06:10:27","AMMA06",45600.000,"cc",28346.404,6.00,2834.641,1,6,0.100,23528.000,0.200,18629.000,0.300,2577.000,0.500,529.000,1.000,337.000,5.000,0
"07/06/06","06:10:33","AMMA06",46327.000,"cc",28327.217,6.00,2832.722,1,6,0.100,23824.000,0.200,18691.000,0.300,2708.000,0.500,713.000,1.000,391.000,5.000,0
"07/06/06","06:10:39","AMMA06",46734.000,"cc",28304.775,6.00,2830.478,1,6,0.100,24058.000,0.200,18708.000,0.300,2842.000,0.500,708.000,1.000,418.000,5.000,0
"07/06/06","06:10:45","AMMA06",49665.000,"cc",28327.596,6.00,2832.760,1,6,0.100,25382.000,0.200,19202.000,0.300,3382.000,0.500,1148.000,1.000,551.000,5.000,0
"07/06/06","06:10:51","AMMA06",47390.000,"cc",28355.162,6.00,2835.516,1,6,0.100,24042.000,0.200,18888.000,0.300,3161.000,0.500,883.000,1.000,416.000,5.000,0
"07/06/06","06:10:57","AMMA06",46672.000,"cc",28299.307,6.00,2829.931,1,6,0.100,23562.000,0.200,18988.000,0.300,2940.000,0.500,760.000,1.000,422.000,5.000,0
"07/06/06","06:11:03","AMMA06",45652.000,"cc",28302.221,6.00,2830.222,1,6,0.100,23378.000,0.200,18619.000,0.300,2628.000,0.500,664.000,1.000,363.000,5.000,0
"07/06/06","06:11:09","AMMA06",45892.000,"cc",28327.842,6.00,2832.784,1,6,0.100,23683.000,0.200,18469.000,0.300,2701.000,0.500,672.000,1.000,367.000,5.000,0
"07/06/06","06:11:15","AMMA06",46922.000,"cc",28347.807,6.00,2834.781,1,6,0.100,24227.000,0.200,18881.000,0.300,2743.000,0.500,691.000,1.000,379.000,5.000,1.000
"07/06/06","06:11:21","AMMA06",45580.000,"cc",28289.522,6.00,2828.952,1,6,0.100,23623.000,0.200,18405.000,0.300,2602.000,0.500,564.000,1.000,386.000,5.000,0
"07/06/06","06:11:27","AMMA06",49259.000,"cc",28323.242,6.00,2832.325,1,6,0.100,25466.000,0.200,19329.000,0.300,3164.000,0.500,825.000,1.000,475.000,5.000,0
"07/06/06","06:11:33","AMMA06",47366.000,"cc",28300.936,6.00,2830.094,1,6,0.100,24044.000,0.200,19083.000,0.300,2983.000,0.500,833.000,1.000,423.000,5.000,0
"07/06/06","06:11:39","AMMA06",48120.000,"cc",28322.100,6.00,2832.210,1,6,0.100,24614.000,0.200,19042.000,0.300,3097.000,0.500,888.000,1.000,479.000,5.000,0
"07/06/06","06:11:45","AMMA06",47910.000,"cc",28321.012,6.00,2832.101,1,6,0.100,24246.000,0.200,18979.000,0.300,3208.000,0.500,969.000,1.000,508.000,5.000,0
"07/06/06","06:11:51","AMMA06",50198.000,"cc",28319.617,6.00,2831.962,1,6,0.100,25310.000,0.200,19508.000,0.300,3575.000,0.500,1232.000,1.000,573.000,5.000,0
"07/06/06","06:11:57","AMMA06",46113.000,"cc",28326.170,6.00,2832.617,1,6,0.100,23894.000,0.200,18461.000,0.300,2764.000,0.500,656.000,1.000,338.000,5.000,0
"07/06/06","06:12:03","AMMA06",45599.000,"cc",28285.430,6.00,2828.543,1,6,0.100,23368.000,0.200,18632.000,0.300,2611.000,0.500,622.000,1.000,366.000,5.000,0
"07/06/06","06:12:09","AMMA06",46688.000,"cc",28321.113,6.00,2832.112,1,6,0.100,24436.000,0.200,18668.000,0.300,2611.000,0.500,641.000,1.000,332.000,5.000,0
"07/06/06","06:12:15","AMMA06",44611.000,"cc",28352.428,6.00,2835.243,1,6,0.100,22747.000,0.200,18386.000,0.300,2622.000,0.500,538.000,1.000,318.000,5.000,0
"07/06/06","06:12:21","AMMA06",47417.000,"cc",28326.885,6.00,2832.689,1,6,0.100,24011.000,0.200,18846.000,0.300,3139.000,0.500,942.000,1.000,479.000,5.000,0
"07/06/06","06:12:27","AMMA06",45647.000,"cc",28321.592,6.00,2832.159,1,6,0.100,23490.000,0.200,18400.000,0.300,2738.000,0.500,658.000,1.000,361.000,5.000,0
"07/06/06","06:12:33","AMMA06",45907.000,"cc",28262.135,6.00,2826.214,1,6,0.100,23414.000,0.200,18825.000,0.300,2657.000,0.500,673.000,1.000,338.000,5.000,0
"07/06/06","06:12:39","AMMA06",45013.000,"cc",28319.315,6.00,2831.932,1,6,0.100,23199.000,0.200,18336.000,0.300,2594.000,0.500,575.000,1.000,309.000,5.000,0
"07/06/06","06:12:45","AMMA06",50840.000,"cc",28304.949,6.00,2830.495,1,6,0.100,25694.000,0.200,19761.000,0.300,3664.000,0.500,1194.000,1.000,527.000,5.000,0
"07/06/06","06:12:51","AMMA06",46858.000,"cc",28382.566,6.00,2838.257,1,6,0.100,24068.000,0.200,18668.000,0.300,2940.000,0.500,785.000,1.000,397.000,5.000,0
"07/06/06","06:12:57","AMMA06",48633.000,"cc",28314.039,6.00,2831.404,1,6,0.100,24681.000,0.200,19344.000,0.300,3217.000,0.500,908.000,1.000,483.000,5.000,0
"07/06/06","06:13:03","AMMA06",47098.000,"cc",28310.250,6.00,2831.025,1,6,0.100,23980.000,0.200,18923.000,0.300,2993.000,0.500,772.000,1.000,430.000,5.000,0
"07/06/06","06:13:09","AMMA06",47204.000,"cc",28266.088,6.00,2826.609,1,6,0.100,24072.000,0.200,18816.000,0.300,3072.000,0.500,850.000,1.000,394.000,5.000,0
"07/06/06","06:13:15","AMMA06",45524.000,"cc",28349.193,6.00,2834.919,1,6,0.100,23388.000,0.200,18377.000,0.300,2726.000,0.500,646.000,1.000,387.000,5.000,0
"07/06/06","06:13:21","AMMA06",46230.000,"cc",28320.453,6.00,2832.045,1,6,0.100,23473.000,0.200,18730.000,0.300,2916.000,0.500,732.000,1.000,379.000,5.000,0
"07/06/06","06:13:27","AMMA06",48940.000,"cc",28334.453,6.00,2833.446,1,6,0.100,24729.000,0.200,19180.000,0.300,3407.000,0.500,1088.000,1.000,536.000,5.000,0
"07/06/06","06:13:33","AMMA06",45706.000,"cc",28327.563,6.00,2832.756,1,6,0.100,23533.000,0.200,18437.000,0.300,2694.000,0.500,659.000,1.000,383.000,5.000,0
"07/06/06","06:13:39","AMMA06",47459.000,"cc",28287.223,6.00,2828.722,1,6,0.100,24170.000,0.200,18759.000,0.300,3148.000,0.500,929.000,1.000,453.000,5.000,0
"07/06/06","06:13:45","AMMA06",46719.000,"cc",28301.582,6.00,2830.158,1,6,0.100,23901.000,0.200,18662.000,0.300,2923.000,0.500,810.000,1.000,423.000,5.000,0
"07/06/06","06:13:51","AMMA06",47332.000,"cc",28373.584,6.00,2837.359,1,6,0.100,24087.000,0.200,19065.000,0.300,2959.000,0.500,804.000,1.000,417.000,5.000,0
"07/06/06","06:13:57","AMMA06",47556.000,"cc",28332.340,6.00,2833.234,1,6,0.100,24396.000,0.200,18938.000,0.300,3040.000,0.500,757.000,1.000,425.000,5.000,0
"07/06/06","06:14:03","AMMA06",46434.000,"cc",28302.525,6.00,2830.253,1,6,0.100,23794.000,0.200,18665.000,0.300,2830.000,0.500,752.000,1.000,393.000,5.000,0
"07/06/06","06:14:09","AMMA06",48562.000,"cc",28346.529,6.00,2834.653,1,6,0.100,24700.000,0.200,19265.000,0.300,3235.000,0.500,909.000,1.000,453.000,5.000,0
"07/06/06","06:14:15","AMMA06",46558.000,"cc",28307.748,6.00,2830.775,1,6,0.100,23538.000,0.200,18929.000,0.300,2929.000,0.500,755.000,1.000,407.000,5.000,0